Location: Asheville, NC
(35.6000°N, 82.5500°W)
Time: 01:17:25
(UTC-05:00)

UWE-3 - Pass Details

Date: 10 January 2018
Orbit: 587 x 683 km, 97.6° (Epoch: 20 January)

Event Time Altitude Azimuth Distance (km) Brightness Sun altitude
Rises 18:36:55 0° 137° (SE) 2,838 ? -12.3°
Reaches altitude 10° 18:39:22 10° 123° (ESE) 1,953 ? -12.8°
Maximum altitude 18:42:45 24° 70° (ENE) 1,296 ? -13.4°
Drops below altitude 10° 18:46:14 10° 17° (NNE) 2,009 ? -14.1°
Sets 18:48:47 0° 3° (N) 2,939 ? -14.6°
